This demonstration page uses our WeatherBlox Daily Observations layout. Learn more.

Hourly Observations for May 16, 2019

Temp ( °F °C ) Dew Point ( °F °C ) Humidity (%) Winds ( mph kmh ) Pressure ( in mb ) Visibility ( mi km ) Precip ( " mm )
12:15 am 00:15 Clear 59 15 46 8 63 63 WSW 3 6 29.94 1014 10 16.09344 0 0
12:35 am 00:35 Partly Cloudy 57 14 46 8 67 67 undefined N/A 29.94 1014 10 16.09344 0 0
12:55 am 00:55 Mostly Cloudy 57 14 46 8 67 67 WSW 5 7 29.94 1014 10 16.09344 0 0
1:15 am 01:15 Mostly Cloudy 55 13 46 8 72 72 W 6 9 29.94 1014 10 16.09344 0 0
1:35 am 01:35 Partly Cloudy 55 13 46 8 72 72 WSW 3 6 29.91 1013 10 16.09344 0 0
1:55 am 01:55 Clear 57 14 46 8 67 67 WSW 5 7 29.91 1013 10 16.09344 0 0
2:15 am 02:15 Clear 55 13 46 8 72 72 WSW 6 9 29.91 1013 10 16.09344 0 0
2:35 am 02:35 Clear 54 12 46 8 77 77 W 3 6 29.91 1013 10 16.09344 0 0
2:50 am 02:50 Clear 55 13 46 8 72 72 WSW 5 7 29.91 1013 10 16.09344 0 0
3:15 am 03:15 Mostly Cloudy 57 14 46 8 67 67 W 5 7 29.91 1013 10 16.09344 0 0
3:35 am 03:35 Mostly Cloudy 61 16 46 8 59 59 WSW 7 11 29.91 1013 10 16.09344 0 0
3:55 am 03:55 Mostly Cloudy 61 16 46 8 59 59 W 8 13 29.91 1013 10 16.09344 0 0
4:15 am 04:15 Cloudy 61 16 46 8 59 59 WSW 6 9 29.91 1013 10 16.09344 0 0
4:35 am 04:35 Partly Cloudy 61 16 46 8 59 59 W 5 7 29.91 1013 10 16.09344 0 0
4:55 am 04:55 Clear 59 15 46 8 63 63 SW 5 7 29.91 1013 10 16.09344 0 0
5:15 am 05:15 Partly Cloudy 61 16 46 8 59 59 SSW 3 6 29.91 1013 10 16.09344 0 0
5:35 am 05:35 Partly Cloudy 59 15 46 8 63 63 ESE 3 6 29.91 1013 10 16.09344 0 0
5:55 am 05:55 Partly Cloudy 57 14 48 9 72 72 Calm 29.91 1013 10 16.09344 0 0
6:15 am 06:15 Mostly Cloudy 55 13 50 10 82 82 Calm 29.94 1014 10 16.09344 0 0
6:35 am 06:35 Cloudy 55 13 50 10 82 82 ENE 3 6 29.94 1014 10 16.09344 0 0
6:55 am 06:55 Cloudy 55 13 52 11 88 88 ENE 6 9 29.94 1014 10 16.09344 0 0
7:15 am 07:15 Cloudy 54 12 52 11 94 94 NE 5 7 29.97 1015 10 16.09344 0 0
7:35 am 07:35 Cloudy 55 13 52 11 88 88 Calm 29.97 1015 10 16.09344 0 0
7:55 am 07:55 Cloudy 55 13 54 12 94 94 W 6 9 29.97 1015 10 16.09344 0 0
8:15 am 08:15 Cloudy 57 14 54 12 88 88 Calm 29.97 1015 10 16.09344 0 0
8:35 am 08:35 Cloudy 57 14 54 12 88 88 Calm 29.97 1015 10 16.09344 0 0
8:55 am 08:55 Mostly Cloudy 59 15 55 13 88 88 Calm 29.97 1015 10 16.09344 0 0
9:15 am 09:15 Partly Cloudy 61 16 55 13 83 83 Calm 29.97 1015 10 16.09344 0 0
9:35 am 09:35 Partly Cloudy 64 18 55 13 73 73 Calm 29.94 1014 10 16.09344 0 0
9:55 am 09:55 Partly Cloudy 66 19 55 13 68 68 W 6 9 29.94 1014 10 16.09344 0 0
10:15 am 10:15 Partly Cloudy 68 20 55 13 64 64 W 9 15 29.94 1014 10 16.09344 0 0
10:35 am 10:35 Sunny 70 21 55 13 60 60 WNW 9 15 29.94 1014 10 16.09344 0 0
10:55 am 10:55 Sunny 70 21 54 12 57 57 WNW 7 11 29.94 1014 10 16.09344 0 0
11:15 am 11:15 Sunny 72 22 54 12 53 53 NW 17 28 29.94 1014 10 16.09344 0 0
11:35 am 11:35 Sunny 72 22 55 13 57 57 NNW 12 19 29.94 1014 10 16.09344 0 0
11:55 am 11:55 Partly Cloudy 72 22 55 13 57 57 NW 12 19 29.94 1014 10 16.09344 0 0
12:15 pm 12:15 Mostly Cloudy 72 22 55 13 57 57 NNW 13 20 29.94 1014 10 16.09344 0 0
12:35 pm 12:35 Mostly Cloudy 72 22 55 13 57 57 NW 10 17 29.94 1014 10 16.09344 0 0
12:55 pm 12:55 Partly Cloudy 73 23 54 12 50 50 N 7 11 29.94 1014 10 16.09344 0 0
1:15 pm 13:15 Partly Cloudy 73 23 52 11 47 47 NNW 12 19 29.91 1013 10 16.09344 0 0
1:35 pm 13:35 Partly Cloudy 77 25 50 10 39 39 NW 15 24 29.91 1013 10 16.09344 0 0
1:55 pm 13:55 Partly Cloudy 75 24 48 9 39 39 NNW 14 22 29.91 1013 10 16.09344 0 0
2:15 pm 14:15 Partly Cloudy 77 25 50 10 39 39 NNW 14 22 29.91 1013 10 16.09344 0 0
2:30 pm 14:30 Partly Cloudy 75 24 50 10 41 41 NNW 15 24 29.91 1013 10 16.09344 0 0
2:55 pm 14:55 Sunny 77 25 48 9 36 36 NW 16 26 29.91 1013 10 16.09344 0 0
3:15 pm 15:15 Sunny 77 25 50 10 39 39 NNW 12 19 29.88 1012 10 16.09344 0 0
3:35 pm 15:35 Partly Cloudy 77 25 50 10 39 39 WNW 12 19 29.88 1012 10 16.09344 0 0
3:55 pm 15:55 Mostly Cloudy 77 25 48 9 36 36 NNW 6 9 29.88 1012 10 16.09344 0 0
4:15 pm 16:15 Mostly Cloudy 77 25 50 10 39 39 NW 13 20 29.88 1012 10 16.09344 0 0
4:35 pm 16:35 Partly Cloudy 77 25 48 9 36 36 NW 8 13 29.88 1012 10 16.09344 0 0
4:55 pm 16:55 Partly Cloudy 79 26 50 10 37 37 W 13 20 29.88 1012 10 16.09344 0 0
5:15 pm 17:15 Partly Cloudy 77 25 48 9 36 36 NNW 6 9 29.88 1012 10 16.09344 0 0
5:35 pm 17:35 Partly Cloudy 79 26 50 10 37 37 WNW 8 13 29.88 1012 10 16.09344 0 0
5:55 pm 17:55 Sunny 77 25 48 9 36 36 WNW 9 15 29.88 1012 10 16.09344 0 0
6:15 pm 18:15 Sunny 77 25 48 9 36 36 WNW 7 11 29.88 1012 10 16.09344 0 0
6:35 pm 18:35 Sunny 75 24 50 10 41 41 NW 5 7 29.88 1012 10 16.09344 0 0
6:50 pm 18:50 Sunny 75 24 48 9 39 39 NW 7 11 29.88 1012 10 16.09344 0 0
7:15 pm 19:15 Sunny 73 23 48 9 41 41 Calm 29.85 1011 10 16.09344 0 0
7:35 pm 19:35 Sunny 72 22 52 11 50 50 WSW 3 6 29.88 1012 10 16.09344 0 0
7:55 pm 19:55 Sunny 70 21 54 12 57 57 Calm 29.88 1012 10 16.09344 0 0
8:15 pm 20:15 Sunny 72 22 52 11 50 50 Calm 29.88 1012 10 16.09344 0 0
8:35 pm 20:35 Clear 66 19 54 12 64 64 Calm 29.88 1012 10 16.09344 0 0
8:55 pm 20:55 Clear 66 19 55 13 68 68 Calm 29.88 1012 10 16.09344 0 0
9:15 pm 21:15 Clear 64 18 55 13 73 73 Calm 29.91 1013 10 16.09344 0 0
9:35 pm 21:35 Clear 64 18 55 13 73 73 Calm 29.91 1013 10 16.09344 0 0
9:55 pm 21:55 Clear 64 18 55 13 73 73 Calm 29.91 1013 10 16.09344 0 0
10:15 pm 22:15 Clear 63 17 55 13 77 77 Calm 29.91 1013 10 16.09344 0 0
10:35 pm 22:35 Clear 63 17 55 13 77 77 Calm 29.91 1013 10 16.09344 0 0
10:55 pm 22:55 Clear 61 16 55 13 83 83 Calm 29.91 1013 10 16.09344 0 0
11:15 pm 23:15 Clear 61 16 55 13 83 83 SSE 3 6 29.91 1013 10 16.09344 0 0
11:35 pm 23:35 Clear 61 16 55 13 83 83 SW 5 7 29.91 1013 10 16.09344 0 0
11:55 pm 23:55 Clear 59 15 55 13 88 88 SE 3 6 29.91 1013 10 16.09344 0 0

Powered by AerisWeather